Location: Mohawk View
(42.7837°N, 73.7885°W)
Time: 01:02:58
(UTC+00:00)

ATLAS 5 CENTAUR R/B - Pass Details

Date: 17 June 2021
Orbit: 510 x 1148 km, 63.4° (Epoch: 28 July)

Event Time Altitude Azimuth Distance (km) Brightness Sun altitude
Exits shadow 08:30:26 - 254° (WSW) 2,006 3.6 -7.5°
Reaches altitude 10° 08:31:03 10° 259° (WSW) 1,792 3.4 -7.4°
Maximum altitude 08:34:29 27° 319° (NW) 1,109 2.9 -6.9°
Drops below altitude 10° 08:38:19 10° 18° (NNE) 2,008 5.2 -6.4°
Sets 08:41:05 0° 30° (NNE) 3,027 6.7 -6.0°
